Weather History for Nashville, TN

Change the Weather History Date:

Tuesday, April 22, 2014

  Actual Average Record
Temperature  
Mean Temperature 68 °F 61 °F  
Max Temperature 80 °F 72 °F 86 °F (1963)
Min Temperature 55 °F 50 °F 32 °F (1978)
Degree Days  
Heating Degree Days 0 6  
Month to date heating degree days 128 182  
Since 1 July heating degree days 3855 3593  
Cooling Degree Days 3 2  
Month to date cooling degree days 28 24  
Year to date cooling degree days 28 32  
Growing Degree Days 20 (Base 50)    
Moisture  
Dew Point 54 °F    
Average Humidity 61    
Maximum Humidity 87    
Minimum Humidity 35    
Precipitation  
Precipitation 0.01 in 0.15 in 5.03 in (1883)
Month to date precipitation 2.78 2.76  
Year to date precipitation 14.84 14.56  
Snow  
Snow 0.00 in 0.00 in 0.00 in (2002)
Month to date snowfall 0.0 0.1  
Since 1 July snowfall 1.6 6.4  
Snow Depth 0.00 in    
Sea Level Pressure  
Sea Level Pressure 29.88 in    
Wind  
Wind Speed 7 mph (NW)    
Max Wind Speed 18 mph    
Max Gust Speed 24 mph    
Visibility 10 miles    
Events Rain    
T = Trace of Precipitation, MM = Missing Value Source: NWS Daily Summary

Daily Weather History Graph

Daily Weather History Graph

Search for Another Location

Airport:

Trip Planner

Search our weather history database for the weather conditions in past years. The results will help you decide how hot, cold, wet, or windy it might be!

Date:

Astronomy

Apr. 22, 2014 Rise Set
Actual Time 6:04 AM CDT 7:26 PM CDT
Civil Twilight 5:37 AM CDT 7:53 PM CDT
Nautical Twilight 5:05 AM CDT 8:25 PM CDT
Astronomical Twilight 4:31 AM CDT 8:59 PM CDT
Moon 1:40 AM CDT 12:39 PM CDT
Length of Visible Light 14h 15m
Length of Day
13h 21m
Last Quarter, 46% of the Moon is Illuminated
Apr 22
Last Quarter
Apr 29
New
May 6
First Quarter
May 14
Full
May 21
Last Quarter

Hourly Weather History & Observations

Time (CDT) Temp. Dew Point Humidity Pressure Visibility Wind Dir Wind Speed Gust Speed Precip Events Conditions
12:53 AM 66.9 °F 55.9 °F 68% 29.90 in 10.0 mi Calm Calm - N/A   Overcast
1:53 AM 66.0 °F 55.9 °F 70% 29.88 in 10.0 mi Calm Calm - N/A   Overcast
2:53 AM 66.9 °F 55.0 °F 66% 29.87 in 10.0 mi WSW 5.8 mph - N/A   Overcast
3:53 AM 66.0 °F 57.0 °F 73% 29.87 in 10.0 mi Variable 6.9 mph - N/A   Overcast
4:53 AM 64.9 °F 57.9 °F 78% 29.87 in 10.0 mi WSW 5.8 mph - N/A   Overcast
5:53 AM 64.0 °F 57.9 °F 80% 29.86 in 10.0 mi Calm Calm - N/A   Mostly Cloudy
6:53 AM 64.0 °F 57.9 °F 80% 29.88 in 10.0 mi Calm Calm - N/A   Overcast
7:30 AM 64.4 °F 59.0 °F 83% 29.89 in 10.0 mi Variable 4.6 mph - N/A   Overcast
7:53 AM 64.9 °F 59.0 °F 81% 29.88 in 10.0 mi West 5.8 mph - N/A   Overcast
8:53 AM 64.0 °F 61.0 °F 90% 29.88 in 9.0 mi West 4.6 mph - 0.01 in   Overcast
9:26 AM 64.4 °F 60.8 °F 88% 29.90 in 10.0 mi WNW 5.8 mph - N/A   Overcast
9:53 AM 64.9 °F 60.1 °F 84% 29.89 in 10.0 mi West 5.8 mph - N/A   Overcast
10:53 AM 64.9 °F 61.0 °F 87% 29.91 in 8.0 mi Calm Calm - 0.00 in Rain Light Rain
11:20 AM 66.2 °F 60.8 °F 83% 29.92 in 8.0 mi WNW 4.6 mph - 0.00 in   Overcast
11:53 AM 68.0 °F 61.0 °F 78% 29.89 in 9.0 mi WNW 4.6 mph - 0.00 in   Overcast
12:28 PM 71.6 °F 60.8 °F 69% 29.90 in 9.0 mi Calm Calm - N/A   Mostly Cloudy
12:53 PM 72.0 °F 60.1 °F 66% 29.87 in 10.0 mi SW 3.5 mph - N/A   Scattered Clouds
1:53 PM 75.9 °F 60.1 °F 58% 29.85 in 10.0 mi WNW 6.9 mph - N/A   Mostly Cloudy
2:53 PM 75.9 °F 55.9 °F 50% 29.83 in 10.0 mi NNW 12.7 mph 18.4 mph N/A   Mostly Cloudy
3:53 PM 78.1 °F 53.1 °F 42% 29.82 in 10.0 mi NNW 13.8 mph - N/A   Mostly Cloudy
4:53 PM 77.0 °F 52.0 °F 42% 29.82 in 10.0 mi NW 13.8 mph - N/A   Partly Cloudy
5:53 PM 75.0 °F 48.0 °F 38% 29.83 in 10.0 mi NNW 13.8 mph 20.7 mph N/A   Partly Cloudy
6:53 PM 72.0 °F 42.1 °F 34% 29.85 in 10.0 mi NNW 10.4 mph - N/A   Clear
7:53 PM 68.0 °F 43.0 °F 40% 29.88 in 10.0 mi North 9.2 mph - N/A   Clear
8:53 PM 64.9 °F 41.0 °F 42% 29.91 in 10.0 mi North 8.1 mph - N/A   Clear
9:53 PM 63.0 °F 39.0 °F 41% 29.93 in 10.0 mi North 6.9 mph - N/A   Clear
10:53 PM 60.1 °F 39.9 °F 47% 29.94 in 10.0 mi North 8.1 mph 18.4 mph N/A   Clear
11:53 PM 57.9 °F 39.0 °F 49% 29.95 in 10.0 mi NNW 5.8 mph - N/A   Clear